contact:dominique.lefevre@mio.osupytheas.fr, maurice.libes@osupytheas.fr
Project:EMSO Ligure-ouest http://www.emso-fr.org/EMSO-France
Sensor Aquadopp, line 13 Serial AQD14315 
DOI : "https://doi.org/10.17882/74513; https://doi.org/10.17882/83244" 
Title:EMSO Ligure Ouest : Data ligne ALBATROSS capteur AQUADOPP - deploiement 2021
Id,Date,Profondeur,Latitude,Longitude,X_East,Y_North,Z_Up,Amplitude_X,Amplitude_Y,Amplitude_Z,Batterie,SoundSpeed,Heading,Pitch,Roll,Pressure,Temperature,Speed,Direction
, , m, degrees North, degrees East, m.s-1, m.s-1,m.s-1, 1, 1, 1, Volt, m.s-1, degree, degree, degree, dbar, degree_C, m.s-1, degree
07,2023-01-15T23:30:00,1500.0,42.79,6.0312,0.005,-0.064,0.002,54.0,55.0,53.0,12.5,1504.2,128.6,-0.2,0.9,1474.914,13.16,0.064,175.5
07,2023-01-16T00:00:00,1500.0,42.79,6.0312,0.002,-0.063,0.008,52.0,52.0,53.0,12.5,1504.2,127.1,-0.2,0.9,1474.931,13.16,0.063,178.2
07,2023-01-16T00:30:00,1500.0,42.79,6.0312,-0.015,-0.06,0.001,54.0,55.0,54.0,12.5,1504.2,134.3,0.0,1.1,1474.926,13.15,0.061,194.0
07,2023-01-16T01:00:00,1500.0,42.79,6.0312,-0.01,-0.066,0.009,55.0,56.0,56.0,12.5,1504.2,127.1,-0.1,1.0,1474.903,13.15,0.066,188.6
07,2023-01-16T01:30:00,1500.0,42.79,6.0312,-0.014,-0.059,0.01,56.0,56.0,54.0,12.5,1504.2,127.1,0.1,1.0,1474.923,13.15,0.06,193.3
07,2023-01-16T02:00:00,1500.0,42.79,6.0312,-0.028,-0.064,-0.019,57.0,59.0,56.0,12.5,1504.2,133.0,0.1,1.1,1474.946,13.15,0.069,203.6
07,2023-01-16T02:30:00,1500.0,42.79,6.0312,-0.012,-0.067,-0.001,57.0,59.0,57.0,12.5,1504.2,132.7,-0.2,0.8,1474.939,13.15,0.068,190.2
07,2023-01-16T03:00:00,1500.0,42.79,6.0312,-0.03,-0.06,-0.002,58.0,59.0,57.0,12.5,1504.2,135.1,-0.2,0.9,1474.949,13.15,0.067,206.6
07,2023-01-16T03:30:00,1500.0,42.79,6.0312,-0.032,-0.058,-0.008,60.0,60.0,60.0,12.5,1504.2,135.9,0.1,1.1,1474.949,13.15,0.066,208.9
07,2023-01-16T04:00:00,1500.0,42.79,6.0312,-0.031,-0.052,0.007,59.0,60.0,57.0,12.5,1504.2,143.1,-0.4,1.1,1474.922,13.15,0.06,210.8
07,2023-01-16T04:30:00,1500.0,42.79,6.0312,-0.033,-0.056,0.0,57.0,58.0,58.0,12.5,1504.2,141.4,-0.2,1.0,1474.916,13.15,0.064,210.5
07,2023-01-16T05:00:00,1500.0,42.79,6.0312,-0.029,-0.049,0.008,57.0,59.0,57.0,12.5,1504.2,145.7,-0.5,1.0,1474.914,13.15,0.056,210.6
07,2023-01-16T05:30:00,1500.0,42.79,6.0312,-0.026,-0.046,0.008,59.0,60.0,61.0,12.5,1504.2,148.5,-0.3,0.9,1474.92,13.15,0.052,209.5
07,2023-01-16T06:00:00,1500.0,42.79,6.0312,-0.021,-0.056,0.003,58.0,60.0,57.0,12.5,1504.2,143.3,0.6,1.1,1474.935,13.15,0.059,200.6
07,2023-01-16T06:30:00,1500.0,42.79,6.0312,-0.025,-0.05,0.008,59.0,60.0,58.0,12.5,1504.2,147.8,0.3,0.8,1474.886,13.15,0.055,206.6
07,2023-01-16T07:00:00,1500.0,42.79,6.0312,-0.029,-0.056,-0.005,60.0,60.0,60.0,12.5,1504.2,153.2,0.3,0.9,1474.901,13.15,0.063,207.4
07,2023-01-16T07:30:00,1500.0,42.79,6.0312,-0.024,-0.055,-0.004,59.0,62.0,59.0,12.5,1504.2,155.7,-0.2,1.1,1474.857,13.15,0.06,203.6
07,2023-01-16T08:00:00,1500.0,42.79,6.0312,-0.041,-0.052,-0.006,59.0,59.0,59.0,12.5,1504.2,154.5,-0.3,0.9,1474.831,13.15,0.066,218.3
07,2023-01-16T08:30:00,1500.0,42.79,6.0312,-0.033,-0.047,-0.002,59.0,62.0,59.0,12.5,1504.2,162.0,-0.1,0.9,1474.852,13.16,0.057,215.1
07,2023-01-16T09:00:00,1500.0,42.79,6.0312,-0.019,-0.05,-0.004,61.0,61.0,59.0,12.5,1504.2,159.9,0.0,1.0,1474.876,13.15,0.053,200.8
07,2023-01-16T09:30:00,1500.0,42.79,6.0312,-0.034,-0.047,-0.008,60.0,63.0,61.0,12.5,1504.2,158.1,0.1,1.0,1474.869,13.16,0.058,215.9
07,2023-01-16T10:00:00,1500.0,42.79,6.0312,-0.038,-0.042,0.0,60.0,62.0,60.0,12.5,1504.2,164.6,-0.2,0.9,1474.911,13.16,0.056,222.1
07,2023-01-16T10:30:00,1500.0,42.79,6.0312,-0.042,-0.037,0.02,61.0,61.0,60.0,12.5,1504.2,167.7,-0.4,0.8,1474.906,13.15,0.055,228.6
07,2023-01-16T11:00:00,1500.0,42.79,6.0312,-0.037,-0.027,-0.018,60.0,61.0,60.0,12.5,1504.2,166.9,-0.2,1.2,1474.887,13.15,0.045,233.9
07,2023-01-16T11:30:00,1500.0,42.79,6.0312,-0.037,-0.021,-0.003,60.0,63.0,61.0,12.5,1504.2,173.1,-0.1,1.2,1474.921,13.15,0.042,240.4
07,2023-01-16T12:00:00,1500.0,42.79,6.0312,-0.035,-0.026,0.01,61.0,62.0,61.0,12.5,1504.2,176.3,-0.2,1.2,1474.903,13.15,0.043,233.4
07,2023-01-16T12:30:00,1500.0,42.79,6.0312,-0.029,-0.015,0.01,60.0,61.0,59.0,12.5,1504.2,181.2,-0.2,0.8,1474.923,13.15,0.032,242.6
07,2023-01-16T13:00:00,1500.0,42.79,6.0312,-0.036,-0.017,0.015,60.0,61.0,61.0,12.5,1504.2,185.2,0.1,0.9,1474.875,13.15,0.039,244.7
07,2023-01-16T13:30:00,1500.0,42.79,6.0312,-0.043,-0.018,0.006,60.0,60.0,59.0,12.5,1504.2,188.1,0.0,0.8,1474.882,13.15,0.046,247.3
07,2023-01-16T14:00:00,1500.0,42.79,6.0312,-0.034,-0.023,0.005,60.0,61.0,60.0,12.5,1504.2,191.3,-0.1,1.2,1474.907,13.15,0.041,235.9
07,2023-01-16T14:30:00,1500.0,42.79,6.0312,-0.03,-0.013,0.013,58.0,59.0,60.0,12.5,1504.2,194.5,0.2,0.8,1474.895,13.15,0.032,246.6
07,2023-01-16T15:00:00,1500.0,42.79,6.0312,-0.025,-0.007,0.023,59.0,61.0,57.0,12.5,1504.2,198.8,-0.1,0.9,1474.894,13.14,0.025,254.4
07,2023-01-16T15:30:00,1500.0,42.79,6.0312,-0.024,-0.017,0.009,58.0,60.0,57.0,12.5,1504.2,201.3,-0.2,1.0,1474.877,13.14,0.029,234.7
07,2023-01-16T16:00:00,1500.0,42.79,6.0312,-0.023,-0.026,0.001,59.0,59.0,59.0,12.5,1504.2,199.4,0.0,0.8,1474.871,13.14,0.034,221.5
07,2023-01-16T16:30:00,1500.0,42.79,6.0312,-0.014,-0.015,0.009,59.0,60.0,58.0,12.5,1504.2,202.9,-0.1,1.0,1474.829,13.14,0.02,223.0
07,2023-01-16T17:00:00,1500.0,42.79,6.0312,-0.016,-0.015,0.007,58.0,59.0,58.0,12.5,1504.2,196.5,-0.2,0.9,1474.876,13.14,0.021,226.9
07,2023-01-16T17:30:00,1500.0,42.79,6.0312,-0.012,-0.022,0.013,57.0,61.0,58.0,12.5,1504.2,193.9,-0.1,0.7,1474.855,13.14,0.025,208.6
07,2023-01-16T18:00:00,1500.0,42.79,6.0312,-0.024,-0.016,0.012,59.0,60.0,57.0,12.5,1504.2,191.6,-0.3,0.7,1474.85,13.14,0.028,236.3
07,2023-01-16T18:30:00,1500.0,42.79,6.0312,-0.034,-0.019,-0.017,57.0,61.0,58.0,12.5,1504.2,194.3,0.1,0.8,1474.842,13.14,0.038,240.8
07,2023-01-16T19:00:00,1500.0,42.79,6.0312,-0.011,-0.037,0.011,57.0,60.0,56.0,12.5,1504.2,182.6,0.0,0.7,1474.781,13.15,0.038,196.6
07,2023-01-16T19:30:00,1500.0,42.79,6.0312,-0.032,-0.024,0.015,58.0,58.0,59.0,12.5,1504.2,179.1,0.1,0.9,1474.787,13.15,0.04,233.1
07,2023-01-16T20:00:00,1500.0,42.79,6.0312,-0.032,-0.026,-0.001,58.0,58.0,58.0,12.5,1504.2,177.1,0.0,0.8,1474.782,13.15,0.041,230.9
07,2023-01-16T20:30:00,1500.0,42.79,6.0312,-0.031,-0.027,-0.009,57.0,58.0,57.0,12.5,1504.2,176.6,-0.1,1.0,1474.793,13.15,0.041,228.9
07,2023-01-16T21:00:00,1500.0,42.79,6.0312,-0.03,-0.028,-0.011,58.0,59.0,56.0,12.5,1504.2,176.0,-0.1,1.1,1474.769,13.15,0.041,227.0
07,2023-01-16T21:30:00,1500.0,42.79,6.0312,-0.051,-0.021,0.003,55.0,57.0,56.0,12.5,1504.2,174.8,0.3,1.1,1474.748,13.15,0.055,247.6
07,2023-01-16T22:00:00,1500.0,42.79,6.0312,-0.045,-0.021,0.0,57.0,57.0,57.0,12.5,1504.2,173.3,0.1,1.2,1474.773,13.15,0.049,245.0
07,2023-01-16T22:30:00,1500.0,42.79,6.0312,-0.038,-0.019,-0.003,57.0,58.0,56.0,12.5,1504.2,178.9,-0.1,0.8,1474.773,13.15,0.042,243.4
07,2023-01-16T23:00:00,1500.0,42.79,6.0312,-0.038,-0.004,0.001,56.0,57.0,56.0,12.5,1504.2,177.8,-0.2,0.8,1474.784,13.15,0.038,264.0
